User: anonymous   Login
Location: Morlupo
(42.1333°N, 12.5000°E)
Time: 12:30:45
(UTC+00:00)
Language:

Cosmos 1634 Rocket - Orbit

View from above orbital plane
View from above orbital plane
View from above satellite
View from above satellite

Ground track
Ground track

The orbit data is extracted from the following two-line orbital elements,

1 15598U 85022B   20330.92716247 +.00000010 +00000-0 -56707-5 0  9993
2 15598 082.9384 252.1975 0021666 188.2376 241.9965 13.76577235793260
Epoch (UTC): 25 November 2020 22:15:06
Eccentricity: 0.0021666
inclination: 82.9384°
perigee height: 960 km
apogee height: 992 km
right ascension of ascending node: 252.1975°
argument of perigee: 188.2376°
revolutions per day: 13.76577235
mean anomaly at epoch: 241.9965°
orbit number at epoch: 79326

The dashed part of the orbit path shows where the satellite is in the earth's shadow,  

DLR